Hourly Data Report for October 09, 2015

All times are specified in Local Standard Time (LST). Add 1 hour to adjust for Daylight Saving Time where and when it is observed.

POND INLET A
NUNAVUT

72°41'22.000" N
77°58'08.000" W
61.60 m
2403206
71095
YIO

Download Data

Hourly Data (October 2015)
Hourly Data Report for October 9, 2015
Temp Definition
°C
Dew Point Temp Definition
°C
Rel Hum Definition
%
Wind Dir Definition
10's deg

Wind Spd Definition
km/h
Visibility Definition
km
Stn Press Definition
kPa
Hmdx Definition


Wind Chill Definition


Weather Definition


TIME
00:00 Legend Double Dagger -6.8 -8.0 91 16 15 6.4 99.54   -13 Snow
01:00 Legend Double Dagger -6.9 -7.9 93 16 13 4.0 99.55   -12 Snow
02:00 Legend Double Dagger -6.8 -7.8 93 16 15 4.8 99.55   -13 Snow
03:00 Legend Double Dagger -7.0 -8.2 91 15 13 14.5 99.57   -13 Snow
04:00 Legend Double Dagger -6.9 -8.4 89 14 13 9.7 99.59   -12 Snow
05:00 Legend Double Dagger -7.0 -8.2 91 15 11 4.8 99.63   -12 Snow
06:00 Legend Double Dagger -7.3 -8.4 92 17 11 3.2 99.66   -12 Snow
07:00 Legend Double Dagger -7.2 -8.1 93 18 11 1.2 99.70   -12 Snow
08:00 Legend Double Dagger -7.2 -8.1 93 17 9 1.0 99.73   -12 Snow
09:00 Legend Double Dagger -7.2 -8.3 92 19 9 1.2 99.76   -12 Snow
10:00 Legend Double Dagger -7.2 -8.4 91 20 15 3.6 99.79   -13 Snow
11:00 Legend Double Dagger -6.9 -8.6 88 20 9 2.8 99.85   -11 Snow
12:00 Legend Double Dagger -8.0 -9.9 87 17 8 16.1 99.90   -12 Snow
13:00 Legend Double Dagger -8.1 -9.9 87 16 15 16.1 99.95   -14 Snow
14:00 Legend Double Dagger -8.4 -10.6 84 16 17 16.1 100.02   -15 Snow
15:00 Legend Double Dagger -8.1 -10.8 81 13 9 3.6 100.08   -13 Snow
16:00 Legend Double Dagger -8.3 -10.7 83 15 11 4.8 100.15   -14 Snow
17:00 Legend Double Dagger -8.3 -10.7 83 15 15 4.0 100.18   -15 Snow
18:00 Legend Double Dagger -8.6 -11.1 82 15 18 11.3 100.23   -16 Snow
19:00 Legend Double Dagger -9.1 -11.0 86 14 15 2.4 100.28   -16 Snow
20:00 Legend Double Dagger -9.3 -12.0 81 14 11 14.5 100.32   -15 Snow
21:00 Legend Double Dagger -9.4 -12.4 79 14 15 16.1 100.34   -16 Snow
22:00 Legend Double Dagger -9.4 -12.2 80 13 17 16.1 100.33   -16 LegendNANA
23:00 Legend Double Dagger -9.5 -11.7 84 16 18 16.1 100.36   -17 LegendNANA

Notes on Data Quality.

Legend

  • E = Estimated
  • M = Missing
  • NA = Not Available
  • ‡ = Partner data that is not subject to review by the National Climate Archives
Date modified: